World > North America > United States > Mississippi > Amistead  

Amistead, MS Hourly Weather Forecast

Feedback E-mail the Weather

Quick Clicks

Weather World

24 Hour Forecast

Current Conditions - Lightning Observed. Temperature is 71°F22°C, dew point 70°F21°C, humidity 97%. Wind direction is SSW at 10 mph16 km/h with visibility of 10 mi16 km. Barometric pressure is 29.95 in1014 mb.
Tonight - Mostly cloudy with a chance of showers and thunderstorms. Lows in the lower 60s. South winds 10 to 15 mph, becoming west after mid.. Full Forecast
Friday - Mostly cloudy. Highs in the upper 60s. North winds 10 to 15 mph... Full Forecast

Amistead Hourly Weather

24 Hour Weather Scroll
Thu, Apr 18
7:00 pm
Thu, Apr 18
8:00 pm
Thu, Apr 18
9:00 pm
Thu, Apr 18
10:00 pm
Thu, Apr 18
11:00 pm
Fri, Apr 19
Midnight
Fri, Apr 19
1:00 am
Fri, Apr 19
2:00 am
Fri, Apr 19
3:00 am
Fri, Apr 19
4:00 am
Fri, Apr 19
5:00 am
Fri, Apr 19
6:00 am
Fri, Apr 19
7:00 am
Fri, Apr 19
8:00 am
Fri, Apr 19
9:00 am
Fri, Apr 19
10:00 am
Fri, Apr 19
11:00 am
Fri, Apr 19
Noon
Fri, Apr 19
1:00 pm
Fri, Apr 19
2:00 pm
Fri, Apr 19
3:00 pm
Fri, Apr 19
4:00 pm
Fri, Apr 19
5:00 pm
Fri, Apr 19
6:00 pm
OvercastLight Rain ShowerLight Rain ShowerPatchy Rain NearbyPatchy Rain NearbyPatchy Rain NearbyPartly Cloudy Light Rain ShowerLight Rain ShowerPatchy Rain NearbyPatchy Rain NearbyPatchy Rain NearbyPatchy Rain NearbyPatchy Rain NearbyPatchy Rain NearbyOvercast Patchy Rain NearbyOvercast Overcast Overcast Patchy Rain NearbyPatchy Rain NearbyOvercast Cloudy
Overcast Light Rain Showers Light Rain Showers Patchy Rain Nearby Patchy Rain Nearby Patchy Rain Nearby Partly Cloudy Light Rain Showers Light Rain Showers Patchy Rain Nearby Patchy Rain Nearby Patchy Rain Nearby Patchy Rain Nearby Patchy Rain Nearby Patchy Rain Nearby Overcast Patchy Rain Nearby Overcast Overcast Overcast Patchy Rain Nearby Patchy Rain Nearby Overcast Cloudy
71°F22°C 68°F20°C 68°F20°C 68°F20°C 68°F20°C 68°F20°C 68°F20°C 68°F20°C 67°F20°C 65°F18°C 63°F17°C 61°F16°C 60°F15°C 59°F15°C 58°F15°C 60°F15°C 61°F16°C 62°F17°C 63°F17°C 63°F17°C 63°F17°C 64°F18°C 64°F18°C 63°F17°C
67°F
19°C
66°F
19°C
66°F
19°C
67°F
19°C
67°F
19°C
67°F
19°C
67°F
20°C
67°F
19°C
67°F
19°C
65°F
19°C
61°F
16°C
59°F
15°C
57°F
14°C
56°F
13°C
55°F
13°C
55°F
13°C
55°F
13°C
55°F
13°C
56°F
13°C
56°F
13°C
56°F
13°C
56°F
13°C
57°F
14°C
56°F
14°C
29.94 in
1014 mb
29.94 in
1014 mb
29.94 in
1014 mb
29.94 in
1014 mb
29.94 in
1014 mb
29.94 in
1014 mb
29.94 in
1014 mb
29.94 in
1014 mb
29.94 in
1014 mb
29.97 in
1015 mb
30 in
1016 mb
30.03 in
1017 mb
30.06 in
1018 mb
30.09 in
1019 mb
30.09 in
1019 mb
30.09 in
1019 mb
30.12 in
1020 mb
30.12 in
1020 mb
30.09 in
1019 mb
30.12 in
1020 mb
30.09 in
1019 mb
30.09 in
1019 mb
30.09 in
1019 mb
30.09 in
1019 mb
98%95%95%95%95%96%95%96%97%96%94%93%92%91%90%88%82%78%75%75%77%79%77%76%
SSWSSSSSWSSWSSWSWWSWNWNNNNNNENNENNENNENNENNENNNENNENE
11 mph
17 km/h
11 mph
17 km/h
10 mph
15 km/h
9 mph
14 km/h
8 mph
13 km/h
8 mph
13 km/h
9 mph
14 km/h
8 mph
13 km/h
7 mph
11 km/h
11 mph
17 km/h
14 mph
23 km/h
14 mph
23 km/h
14 mph
23 km/h
14 mph
22 km/h
14 mph
23 km/h
15 mph
24 km/h
15 mph
24 km/h
13 mph
22 km/h
12 mph
20 km/h
12 mph
19 km/h
10 mph
17 km/h
9 mph
14 km/h
9 mph
15 km/h
10 mph
16 km/h
100%100%100%100%100%100%0%100%100%63%100%100%70%78%73%0%74%0%0%0%70%72%0%0%
10 mi
16 km
6 mi
10 km
6 mi
10 km
6 mi
9 km
6 mi
10 km
6 mi
9 km
6 mi
10 km
6 mi
10 km
6 mi
10 km
6 mi
10 km
6 mi
10 km
6 mi
10 km
6 mi
10 km
6 mi
10 km
6 mi
10 km
6 mi
10 km
6 mi
10 km
6 mi
10 km
6 mi
10 km
6 mi
10 km
6 mi
10 km
6 mi
10 km
6 mi
10 km
6 mi
10 km

Day/Time
Weather
Condition
Temperature
Dew Point
Pressure
Humidity
Wind Direction
Wind Speed
Prob Precip %
Visibility
POP = Probability of Precipitation. ** Indicates missing data/values from KUTA model statistics.

Trending Headlines

Trending Entertainment Headlines

Amistead Radar Loop

Use the map search tool if you want to place a location marker on the radar map...

48 Hour API Forecast

Prob Precip % = Probability of Precipitation.

Amistead 36 Hour Forecast

POP = Probability of Precipitation. ** Indicates missing data/values from model statistics.

E-mail the Amistead Weather Forecast

Voice your opinion or tell us about page issues...

Amistead MS Weather - 8:27 pm

What are people saying?

Contact Us